DW5425 Weather Reports


time (UTC)temp
C
wind
direction
speed
KPH
gust
KPH
rain 1hr
cm
rain 24hr
cm
rain mn
cm
humidity
%
barometer
mb
20260504050003 7 242 0.0 1.6 0.00 0.00 0.00 59 1014.0
20260504045003 8 264 0.0 1.6 0.00 0.00 0.00 59 1014.1
20260504044503 8 276 0.0 1.6 0.00 0.00 0.00 59 1014.1
20260504044003 8 258 0.0 1.6 0.00 0.00 0.00 59 1014.1
20260504042005 8 257 0.0 1.6 0.00 0.00 0.00 58 1014.1
20260504041003 8 251 0.0 0.0 0.00 0.00 0.00 57 1014.1
20260504040004 8 251 0.0 1.6 0.00 0.00 0.00 57 1014.1
20260504035503 8 243 0.0 0.0 0.00 0.00 0.00 57 1014.1
20260504034504 8 243 0.0 0.0 0.00 0.00 0.00 57 1013.9
20260504034004 8 243 0.0 0.0 0.00 0.00 0.00 56 1013.9
20260504033003 9 243 0.0 1.6 0.00 0.00 0.00 54 1013.9
20260504032503 9 269 0.0 1.6 0.00 0.00 0.00 53 1013.8
20260504032004 9 269 0.0 0.0 0.00 0.00 0.00 52 1013.8
20260504025503 9 234 0.0 0.0 0.00 0.00 0.00 54 1013.7
20260504025004 9 234 0.0 0.0 0.00 0.00 0.00 54 1013.7
20260504024503 9 234 0.0 1.6 0.00 0.00 0.00 54 1013.7
20260504023003 10 234 0.0 1.6 0.00 0.00 0.00 52 1013.6
20260504022503 10 265 0.0 1.6 0.00 0.00 0.00 53 1013.6
20260504022003 10 234 0.0 1.6 0.00 0.00 0.00 52 1013.6
20260504021504 10 234 0.0 0.0 0.00 0.00 0.00 52 1013.6
20260504020004 10 234 0.0 0.0 0.00 0.00 0.00 51 1013.6
20260504015003 10 234 0.0 0.0 0.00 0.00 0.00 51 1013.5
20260504013504 11 234 0.0 0.0 0.00 0.00 0.00 50 1013.4
20260504011504 11 234 0.0 1.6 0.00 0.00 0.00 46 1013.3
20260504010504 11 234 0.0 0.0 0.00 0.00 0.00 45 1013.3
20260504004003 12 234 0.0 0.0 0.00 0.00 0.00 43 1013.1
20260504003004 13 234 0.0 1.6 0.00 0.00 0.00 41 1013.0
20260504002504 13 220 0.0 3.2 0.00 0.00 0.00 41 1012.9
20260504001504 13 251 1.6 4.8 0.00 0.00 0.00 40 1012.9
20260504000003 14 242 1.6 4.8 0.00 0.00 0.00 39 1012.8
20260503235504 14 222 1.6 8.0 0.00 0.00 0.00 38 1012.7
20260503234503 15 254 1.6 8.0 0.00 0.00 0.00 37 1012.6
20260503234005 15 259 1.6 8.0 0.00 0.00 0.00 36 1012.5
20260503233004 15 299 4.8 12.9 0.00 0.00 0.00 36 1012.4
20260503231503 15 263 4.8 12.9 0.00 0.00 0.00 35 1012.4
20260503230503 16 281 4.8 12.9 0.00 0.00 0.00 34 1012.5
20260503230004 16 302 8.0 19.3 0.00 0.00 0.00 34 1012.4
20260503225503 16 288 4.8 12.9 0.00 0.00 0.00 34 1012.4
20260503224003 16 302 4.8 25.7 0.00 0.00 0.00 34 1012.4
20260503222504 15 248 4.8 12.9 0.00 0.00 0.00 35 1012.4
20260503221504 16 308 6.4 12.9 0.00 0.00 0.00 34 1012.5
20260503221004 16 289 8.0 14.5 0.00 0.00 0.00 33 1012.5
20260503220003 16 303 4.8 9.7 0.00 0.00 0.00 34 1012.6
20260503215504 15 254 3.2 12.9 0.00 0.00 0.00 36 1012.6
20260503215004 16 253 9.7 16.1 0.00 0.00 0.00 33 1012.5
20260503212504 16 286 8.0 19.3 0.00 0.00 0.00 35 1012.4
20260503211004 16 286 8.0 14.5 0.00 0.00 0.00 34 1012.4
20260503210004 15 309 4.8 16.1 0.00 0.00 0.00 35 1012.4
20260503205004 15 291 9.7 14.5 0.00 0.00 0.00 35 1012.5
20260503204004 15 316 11.3 24.1 0.00 0.00 0.00 34 1012.6
20260503203003 16 288 4.8 16.1 0.00 0.00 0.00 35 1012.5
20260503202003 15 301 11.3 20.9 0.00 0.00 0.00 34 1012.6
20260503201503 15 308 9.7 25.7 0.00 0.00 0.00 35 1012.8
20260503200504 16 290 9.7 29.0 0.00 0.00 0.00 33 1012.8
20260503200004 16 240 11.3 19.3 0.00 0.00 0.00 35 1012.8
20260503194504 15 281 11.3 24.1 0.00 0.00 0.00 35 1012.9
20260503194004 15 304 16.1 24.1 0.00 0.00 0.00 35 1013.0
20260503193503 15 319 11.3 22.5 0.00 0.00 0.00 36 1013.1
20260503192503 15 290 9.7 20.9 0.00 0.00 0.00 35 1013.1
20260503191003 15 294 9.7 20.9 0.00 0.00 0.00 36 1013.4
20260503185504 14 263 8.0 19.3 0.00 0.00 0.00 36 1013.6
20260503184503 15 312 11.3 25.7 0.00 0.00 0.00 34 1013.7
20260503183004 14 300 9.7 20.9 0.00 0.00 0.00 35 1013.7
20260503182505 14 228 9.7 19.3 0.00 0.00 0.00 36 1013.8
20260503182005 13 303 9.7 19.3 0.00 0.00 0.00 34 1013.8
20260503181504 13 312 14.5 27.4 0.00 0.00 0.00 34 1013.8
20260503180503 13 302 4.8 22.5 0.00 0.00 0.00 37 1014.0
20260503175003 13 273 12.9 24.1 0.00 0.00 0.00 36 1014.1
20260503174504 13 249 8.0 19.3 0.00 0.00 0.00 38 1014.2
20260503173503 13 321 4.8 25.7 0.00 0.00 0.00 38 1014.2
20260503172504 12 280 12.9 22.5 0.00 0.00 0.00 36 1014.3
20260503171004 13 261 12.9 27.4 0.00 0.00 0.00 39 1014.3
20260503151004 10 304 11.3 22.5 0.00 0.00 0.00 44 1015.4